This demonstration page uses our WeatherBlox Daily Observations layout. Learn more.

Left ArrowRight Arrow

39.01783, -85.05884

Hourly Observations for October 16, 2018

Temp ( °F °C ) Dew Point ( °F °C ) Humidity (%) Winds ( mph kmh ) Pressure ( in mb ) Visibility ( mi km ) Precip ( " mm )
12:52 am 00:52 Cloudy 40 4.4 39 3.9 97 97 WSW 3 6 30.29 1026 10 16 N/A
1:52 am 01:52 Cloudy 41 5 38 3.3 89 89 NW 5 7 30.27 1025 10 16 N/A
2:52 am 02:52 Cloudy 41 5 39 3.9 93 93 NW 3 6 30.28 1025 10 16 N/A
3:52 am 03:52 Mostly Cloudy 41 5 38 3.3 89 89 N N/A 30.29 1026 10 16 N/A
4:52 am 04:52 Mostly Cloudy 38 3.3 36 2.2 93 93 NW 6 9 30.28 1026 10 16 N/A
5:52 am 05:52 Cloudy 38 3.3 36 2.2 93 93 VRB 5 7 30.30 1026 10 16 N/A
6:52 am 06:52 Mostly Cloudy 39 3.9 36 2.2 89 89 NNW 3 6 30.30 1026 10 16 N/A
7:52 am 07:52 Mostly Cloudy 39 3.9 37 2.8 93 93 N N/A 30.28 1026 10 16 N/A
8:52 am 08:52 Mostly Cloudy 39 3.9 37 2.8 93 93 N N/A 30.30 1026 7 11 N/A
9:52 am 09:52 Mostly Cloudy 43 6.1 37 2.8 80 80 N N/A 30.30 1026 10 16 N/A
10:52 am 10:52 Mostly Cloudy 46 7.8 36 2.2 68 68 N N/A 30.29 1026 10 16 N/A
11:52 am 11:52 Mostly Cloudy 49 9.4 36 2.2 61 61 N N/A 30.28 1026 10 16 N/A
12:52 pm 12:52 Mostly Cloudy 51 10.6 37 2.8 59 59 N N/A 30.25 1024 9 14 N/A
1:52 pm 13:52 Mostly Cloudy 53 11.7 38 3.3 57 57 SW 7 11 30.22 1024 10 16 N/A
2:52 pm 14:52 Mostly Cloudy 53 11.7 35 1.7 51 51 VRB 3 6 30.19 1022 10 16 N/A
3:52 pm 15:52 Mostly Cloudy 53 11.7 38 3.3 57 57 SSW 5 7 30.17 1022 10 16 N/A
4:52 pm 16:52 Mostly Cloudy 51 10.6 36 2.2 56 56 SSW 8 13 30.16 1022 10 16 N/A
5:52 pm 17:52 Mostly Cloudy 50 10 38 3.3 63 63 SSW 7 11 30.15 1021 10 16 N/A
6:52 pm 18:52 Mostly Cloudy 49 9.4 38 3.3 66 66 SW 5 7 30.15 1021 10 16 N/A
7:52 pm 19:52 Mostly Cloudy 46 7.8 39 3.9 77 77 SW 6 9 30.15 1021 10 16 N/A
8:52 pm 20:52 Mostly Cloudy 45 7.2 39 3.9 80 80 SSW 8 13 30.16 1021 10 16 N/A
9:52 pm 21:52 Mostly Cloudy 45 7.2 38 3.3 77 77 SW 9 15 30.17 1022 10 16 N/A
10:52 pm 22:52 Mostly Cloudy 45 7.2 38 3.3 77 77 WSW 8 13 30.19 1022 10 16 N/A
11:52 pm 23:52 Mostly Cloudy 44 6.7 38 3.3 79 79 WSW 7 11 30.19 1022 10 16 N/A

Powered by AerisWeather